Uytash, Russia

12:32 PM MSK on June 26, 2017 (GMT +0300)
Uytash

Weather History for URML - August, 2013

Change the Weather History Date:

Tuesday, August 20, 2013

  Actual Average Record
Temperature  
Mean Temperature 76 °F -  
Max Temperature 87 °F - - ()
Min Temperature 66 °F - - ()
Cooling Degree Days 12    
Growing Degree Days 26 (Base 50)    
Moisture  
Dew Point 58 °F    
Average Humidity 52    
Maximum Humidity 69    
Minimum Humidity 35    
Precipitation  
Precipitation 0.00 in - - ()
Sea Level Pressure  
Sea Level Pressure 29.90 in    
Wind  
Wind Speed 7 mph ()    
Max Wind Speed 18 mph    
Max Gust Speed -    
Visibility 6.2 miles    
Events      
T = Trace of Precipitation, MM = Missing Value Source: Averaged Metar Reports

Daily Weather History Graph

Daily Weather History Graph

Search for Another Location

Airport or City:

Trip Planner

Search our weather history database for the weather conditions in past years. The results will help you decide how hot, cold, wet, or windy it might be!

Date:

Astronomy

Aug. 20, 2013 Rise Set
Actual Time 6:00 AM MSK 7:43 PM MSK
Civil Twilight 5:30 AM MSK 8:13 PM MSK
Nautical Twilight 4:54 AM MSK 8:50 PM MSK
Astronomical Twilight 4:14 AM MSK 9:29 PM MSK
Moon 6:59 PM MSK (8/20) 5:03 AM MSK (8/20)
Length of Visible Light 14h 43m
Length of Day
13h 42m
Waxing Gibbous, 99% of the Moon is Illuminated
Aug 20
Waxing Gibbous
Aug 21
Full
Aug 28
Last Quarter
Sep 5
New
Sep 12
First Quarter

Hourly Weather History & Observations

Time (MSK) Temp. Heat Index Dew Point Humidity Pressure Visibility Wind Dir Wind Speed Gust Speed Precip Events Conditions
12:00 AM 73.4 °F - 55.4 °F 53% 29.89 in 6.2 mi West 6.7 mph - N/A   Mostly Cloudy
12:30 AM 73.4 °F - 55.4 °F 53% 29.89 in 6.2 mi West 6.7 mph - N/A   Mostly Cloudy
1:30 AM 73.4 °F - 55.4 °F 53% 29.89 in 6.2 mi West 6.7 mph - N/A   Mostly Cloudy
2:00 AM 73.4 °F - 55.4 °F 53% 29.89 in 6.2 mi West 6.7 mph - N/A   Mostly Cloudy
3:00 AM 69.8 °F - 55.4 °F 60% 29.89 in 6.2 mi West 4.5 mph - N/A   Mostly Cloudy
4:00 AM 66.2 °F - 53.6 °F 64% 29.89 in 6.2 mi WNW 4.5 mph - N/A   Mostly Cloudy
5:00 AM 66.2 °F - 53.6 °F 64% 29.89 in 6.2 mi WSW 8.9 mph - N/A   Mostly Cloudy
6:00 AM 66.2 °F - 53.6 °F 64% 29.89 in 6.2 mi WSW 6.7 mph - N/A   Mostly Cloudy
6:30 AM 68.0 °F - 53.6 °F 60% 29.92 in 6.2 mi WSW 6.7 mph - N/A   Mostly Cloudy
7:00 AM 71.6 °F - 53.6 °F 53% 29.92 in 6.2 mi WSW 6.7 mph - N/A   Scattered Clouds
7:30 AM 75.2 °F - 55.4 °F 50% 29.92 in 6.2 mi West 4.5 mph - N/A   Scattered Clouds
8:00 AM 78.8 °F - 55.4 °F 44% 29.92 in 6.2 mi NNW 4.5 mph - N/A   Clear
8:30 AM 78.8 °F - 55.4 °F 44% 29.92 in 6.2 mi NE 4.5 mph - N/A   Clear
9:00 AM 80.6 °F 80.5 °F 55.4 °F 42% 29.92 in 6.2 mi NNE 8.9 mph - N/A   Clear
9:30 AM 78.8 °F - 60.8 °F 54% 29.92 in 6.2 mi NE 8.9 mph - N/A   Clear
10:00 AM 80.6 °F 80.8 °F 57.2 °F 45% 29.92 in 6.2 mi NNE 6.7 mph - N/A   Clear
10:30 AM 82.4 °F 82.0 °F 57.2 °F 42% 29.92 in 6.2 mi ENE 8.9 mph - N/A   Clear
11:00 AM 82.4 °F 82.0 °F 57.2 °F 42% 29.92 in 6.2 mi ENE 8.9 mph - N/A   Clear
11:30 AM 82.4 °F 81.7 °F 55.4 °F 39% 29.92 in 6.2 mi NNE 8.9 mph - N/A   Partly Cloudy
12:00 PM 84.2 °F 84.4 °F 60.8 °F 45% 29.89 in 6.2 mi ENE 8.9 mph - N/A   Partly Cloudy
12:30 PM 86.0 °F 85.4 °F 59.0 °F 40% 29.89 in 6.2 mi NNE 15.7 mph - N/A   Partly Cloudy
1:00 PM 86.0 °F 85.4 °F 59.0 °F 40% 29.89 in 6.2 mi NNE 15.7 mph - N/A   Partly Cloudy
1:30 PM 87.8 °F 87.1 °F 59.0 °F 38% 29.89 in 6.2 mi NNE 15.7 mph - N/A   Partly Cloudy
2:00 PM 87.8 °F 86.5 °F 57.2 °F 35% 29.89 in 6.2 mi NNE 17.9 mph - N/A   Partly Cloudy
2:30 PM 84.2 °F 84.4 °F 60.8 °F 45% 29.89 in 6.2 mi NE 17.9 mph - N/A   Partly Cloudy
3:00 PM 86.0 °F 86.1 °F 60.8 °F 43% 29.89 in 6.2 mi ENE 13.4 mph - N/A   Partly Cloudy
3:30 PM 84.2 °F 85.6 °F 64.4 °F 51% 29.89 in 6.2 mi ENE 11.2 mph - N/A   Partly Cloudy
4:00 PM 82.4 °F 82.9 °F 60.8 °F 48% 29.89 in 6.2 mi ENE 11.2 mph - N/A   Partly Cloudy
4:30 PM 82.4 °F 82.5 °F 59.0 °F 45% 29.89 in 6.2 mi ESE 8.9 mph - N/A   Scattered Clouds
5:00 PM 82.4 °F 82.5 °F 59.0 °F 45% 29.89 in 6.2 mi ESE 6.7 mph - N/A   Scattered Clouds
5:30 PM 82.4 °F 82.9 °F 60.8 °F 48% 29.89 in 6.2 mi East 4.5 mph - N/A   Scattered Clouds
6:00 PM 82.4 °F 82.9 °F 60.8 °F 48% 29.89 in 6.2 mi East 6.7 mph - N/A   Partly Cloudy
6:30 PM 80.6 °F 81.8 °F 62.6 °F 54% 29.89 in 6.2 mi ESE 6.7 mph - N/A   Partly Cloudy
7:00 PM 78.8 °F - 62.6 °F 57% 29.92 in 6.2 mi ESE 4.5 mph - N/A   Partly Cloudy
7:30 PM 77.0 °F - 62.6 °F 61% 29.92 in 6.2 mi ESE 6.7 mph - N/A   Partly Cloudy
8:00 PM 73.4 °F - 62.6 °F 69% 29.92 in 6.2 mi SSE 6.7 mph - N/A   Partly Cloudy
8:30 PM 73.4 °F - 60.8 °F 65% 29.92 in 6.2 mi SSW 6.7 mph - N/A   Partly Cloudy
9:00 PM 71.6 °F - 60.8 °F 69% 29.92 in 6.2 mi SW 6.7 mph - N/A   Partly Cloudy
9:30 PM 71.6 °F - 59.0 °F 64% 29.92 in 6.2 mi WSW 6.7 mph - N/A   Clear
10:00 PM 71.6 °F - 59.0 °F 64% 29.92 in 6.2 mi WSW 4.5 mph - N/A   Clear
10:30 PM 73.4 °F - 60.8 °F 65% 29.92 in 6.2 mi West 6.7 mph - N/A   Clear
11:00 PM 73.4 °F - 59.0 °F 61% 29.92 in 6.2 mi WSW 6.7 mph - N/A   Clear
11:30 PM 73.4 °F - 59.0 °F 61% 29.92 in 6.2 mi West 8.9 mph - N/A   Clear